Walla Walla, WA

8:59 PM PDT on May 22, 2017 (GMT -0700)
Walla Walla Regional

Weather History for KALW - October, 2011

Change the Weather History Date:

Thursday, October 6, 2011

  Actual Average Record
Temperature  
Mean Temperature 50 °F 57 °F  
Max Temperature 54 °F 69 °F 86 °F (2014)
Min Temperature 46 °F 46 °F 32 °F (1974)
Degree Days  
Heating Degree Days 16 8  
Month to date heating degree days 43  
Since 1 July heating degree days 141  
Cooling Degree Days 0 0  
Month to date cooling degree days 3  
Year to date cooling degree days 848  
Moisture  
Dew Point 45 °F    
Average Humidity 88    
Maximum Humidity 93    
Minimum Humidity 74    
Precipitation  
Precipitation 0.31 in 0.03 in 0.73 in (1985)
Month to date precipitation 0.20  
Year to date precipitation 14.03  
Snow  
Snow 0.00 in 0.00 in 0.00 in (2002)
Month to date snowfall 0.0  
Year to date snowfall 6.0  
Since 1 July snowfall 0.0  
Snow Depth -    
Sea Level Pressure  
Sea Level Pressure 29.83 in    
Wind  
Wind Speed 11 mph (South)    
Max Wind Speed 14 mph    
Max Gust Speed -    
Visibility 8 miles    
Events Rain    
T = Trace of Precipitation, MM = Missing Value Source: NWS Daily Summary

Daily Weather History Graph

Daily Weather History Graph

Search for Another Location

Airport or City:

Trip Planner

Search our weather history database for the weather conditions in past years. The results will help you decide how hot, cold, wet, or windy it might be!

Date:

Astronomy

Oct. 06, 2011 Rise Set
Actual Time 6:57 AM PDT 6:23 PM PDT
Civil Twilight 6:27 AM PDT 6:53 PM PDT
Nautical Twilight 5:53 AM PDT 7:28 PM PDT
Astronomical Twilight 5:18 AM PDT 8:03 PM PDT
Moon 3:53 PM PDT (10/6) 1:35 AM PDT (10/6)
Length of Visible Light 12h 25m
Length of Day
11h 26m
Waxing Gibbous, 76% of the Moon is Illuminated
Oct 6
Waxing Gibbous
Oct 11
Full
Oct 19
Last Quarter
Oct 26
New
Nov 2
First Quarter

Hourly Weather History & Observations

Time (PDT) Temp. Windchill Dew Point Humidity Pressure Visibility Wind Dir Wind Speed Gust Speed Precip Events Conditions
12:53 AM 48.0 °F - 44.1 °F 86% 29.70 in 10.0 mi South 10.4 mph - 0.02 in Rain Light Rain
1:53 AM 48.2 °F - 42.8 °F 82% 29.71 in 10.0 mi South 9.2 mph - N/A Rain Light Rain
2:53 AM 46.9 °F - 44.1 °F 90% 29.73 in 10.0 mi South 9.2 mph - 0.02 in Rain Light Rain
3:53 AM 46.9 °F - 44.1 °F 90% 29.74 in 10.0 mi South 10.4 mph - 0.04 in Rain Light Rain
4:23 AM 46.4 °F 41.5 °F 44.6 °F 93% 29.74 in 10.0 mi South 10.4 mph - 0.02 in Rain Light Rain
4:35 AM 46.4 °F 41.9 °F 44.6 °F 93% 29.74 in 10.0 mi South 9.2 mph - 0.03 in Rain Light Rain
4:53 AM 46.9 °F - 44.1 °F 90% 29.75 in 9.0 mi South 10.4 mph - 0.04 in Rain Light Rain
5:11 AM 46.4 °F 41.5 °F 42.8 °F 87% 29.75 in 8.0 mi South 10.4 mph - 0.02 in Rain Rain
5:53 AM 46.0 °F 41.0 °F 44.1 °F 93% 29.77 in 9.0 mi South 10.4 mph - 0.07 in Rain Light Rain
6:00 AM 46.4 °F 41.9 °F 44.6 °F 93% 29.76 in 10.0 mi South 9.2 mph - 0.00 in Rain Light Rain
6:53 AM 46.0 °F 40.6 °F 44.1 °F 93% 29.79 in 10.0 mi South 11.5 mph - 0.03 in Rain Light Rain
7:43 AM 46.4 °F 41.1 °F 44.6 °F 93% 29.79 in 6.0 mi South 11.5 mph - 0.01 in Rain Light Rain
7:53 AM 46.9 °F - 44.1 °F 90% 29.80 in 7.0 mi South 11.5 mph - 0.01 in Rain Light Rain
8:09 AM 46.4 °F 41.1 °F 44.6 °F 93% 29.80 in 5.0 mi South 11.5 mph - 0.01 in Rain Light Rain
8:34 AM 46.4 °F 41.5 °F 44.6 °F 93% 29.80 in 6.0 mi South 10.4 mph - 0.02 in Rain Light Rain
8:53 AM 46.9 °F - 44.1 °F 90% 29.81 in 4.0 mi South 10.4 mph - 0.02 in Rain Light Rain
9:00 AM 46.4 °F 41.9 °F 44.6 °F 93% 29.80 in 10.0 mi South 9.2 mph - 0.00 in   Overcast
9:07 AM 46.4 °F 41.5 °F 44.6 °F 93% 29.80 in 5.0 mi SSW 10.4 mph - 0.00 in Rain Light Rain
9:53 AM 46.9 °F - 45.0 °F 93% 29.83 in 5.0 mi South 11.5 mph - 0.02 in Rain Light Rain
10:41 AM 48.2 °F - 44.6 °F 87% 29.83 in 5.0 mi South 11.5 mph - 0.02 in Rain Light Rain
10:53 AM 48.0 °F - 45.0 °F 89% 29.85 in 5.0 mi South 11.5 mph - 0.03 in Rain Light Rain
11:53 AM 48.0 °F - 46.0 °F 93% 29.86 in 2.5 mi South 10.4 mph - 0.00 in Rain Light Rain
12:00 PM 48.2 °F - 46.4 °F 93% 29.85 in 4.0 mi South 10.4 mph - N/A Rain Light Rain
12:13 PM 48.2 °F - 46.4 °F 93% 29.86 in 2.0 mi South 11.5 mph - 0.02 in Rain Light Rain
12:26 PM 48.2 °F - 46.4 °F 93% 29.86 in 2.0 mi SSW 11.5 mph - 0.03 in Rain Light Rain
12:53 PM 48.2 °F - 46.4 °F 93% 29.86 in 2.0 mi South 10.4 mph - N/A Rain Light Rain
1:00 PM 48.2 °F - 46.4 °F 93% 29.86 in 4.0 mi South 11.5 mph - 0.00 in Rain Light Rain
1:46 PM 50.0 °F - 46.4 °F 87% 29.86 in 9.0 mi South 11.5 mph - 0.01 in   Overcast
1:53 PM 50.0 °F - 46.9 °F 89% 29.88 in 10.0 mi South 11.5 mph - 0.01 in   Overcast
2:53 PM 51.1 °F - 46.9 °F 86% 29.89 in 10.0 mi South 11.5 mph - N/A   Overcast
3:53 PM 51.1 °F - 46.9 °F 86% 29.89 in 10.0 mi South 12.7 mph - N/A   Overcast
4:53 PM 52.0 °F - 46.0 °F 80% 29.89 in 10.0 mi South 12.7 mph - N/A   Overcast
5:53 PM 53.1 °F - 46.0 °F 77% 29.90 in 10.0 mi South 10.4 mph - N/A   Overcast
6:53 PM 53.1 °F - 46.0 °F 77% 29.91 in 10.0 mi SSE 10.4 mph - N/A   Overcast
7:53 PM 53.1 °F - 46.0 °F 77% 29.94 in 10.0 mi South 11.5 mph - N/A   Overcast
8:53 PM 53.1 °F - 46.0 °F 77% 29.95 in 10.0 mi South 12.7 mph - 0.00 in   Overcast
9:53 PM 53.1 °F - 45.0 °F 74% 29.95 in 10.0 mi South 12.7 mph - N/A   Overcast
10:53 PM 52.0 °F - 46.0 °F 80% 29.95 in 10.0 mi South 13.8 mph - 0.00 in   Overcast
11:53 PM 52.0 °F - 45.0 °F 77% 29.95 in 10.0 mi SSW 12.7 mph - N/A   Overcast